Location: Unspecified
(54.1780°N, 0.0000°E)
Time: 19:40:19
(UTC+00:00)

Explorer 7 - Pass Details

Date: 22 June 2019
Orbit: 485 x 680 km, 50.3° (Epoch: 18 July)

Event Time Altitude Azimuth Distance (km) Brightness Sun altitude
Rises 10:20:02 0° 242° (WSW) 2,816 10.4 53.8°
Reaches altitude 10° 10:22:19 10° 236° (SW) 1,949 9.7 54.0°
Maximum altitude 10:26:35 44° 165° (SSE) 871 9.6 54.5°
Drops below altitude 10° 10:31:06 10° 93° (E) 2,060 10.2 54.9°
Sets 10:33:34 0° 87° (E) 2,996 10.8 55.1°
